Regional Weather Roundup
Issued by NWS

Home | Current Version | Previous Version | Text Only | Print | Product List | Glossary Off
Versions: 1 2 3 4 5 6 7 8 9 10 11 12 13 14 15 16 17 18 19 20 21 22 23 24 25 26 27 28 29 30 31 32 33 34 35 36 37 38 39 40 41 42 43 44 45 46 47 48 49 50

000
ASUS45 KCYS 251710
RWRWY

WYOMING REGIONAL WEATHER ROUNDUP
NATIONAL WEATHER SERVICE CHEYENNE WY
1100 AM MDT SUN JUN 25 2017

NOTE:  "FAIR" INDICATES FEW OR NO CLOUDS BELOW 12,000 FEET
WITH NO SIGNIFICANT WEATHER AND/OR OBSTRUCTIONS TO VISIBILITY.

WYZ001-251800-
YELLOWSTONE NATIONAL PARK

CITY           SKY/WX    TMP DP  RH WIND       PRES   REMARKS
LK YELLOWSTONE   N/A     55  39  54 SE3       30.49F
W YELLOWSTONE  NOT AVBL

$$
WYZ002>013-054>058-071-098>099-251800-
NORTHERN WYOMING

CITY           SKY/WX    TMP DP  RH WIND       PRES   REMARKS
JACKSON        SUNNY     63  43  48 CALM      30.40F
CODY           FAIR      67  35  30 E7        30.37F
GREYBULL       FAIR      72  33  24 VRB5      30.31F
WORLAND        FAIR      72  40  31 VRB7      30.32F
SHERIDAN       FAIR      70  36  28 CALM      30.32F
BUFFALO        FAIR      69  37  30 N10       30.36F
GILLETTE       FAIR      70  35  27 VRB6      30.32F
NEWCASTLE      FAIR      63  32  31 CALM      30.36F

$$
WYZ014>020-022>026-101>103-251800-
CENTRAL WYOMING

CITY           SKY/WX    TMP DP  RH WIND       PRES   REMARKS
BIG PINEY      FAIR      66  38  35 S12       30.44F
PINEDALE       FAIR      64  34  32 W6        30.45S
DUBOIS         FAIR      61  34  36 E5        30.43F
LANDER         FAIR      65  37  35 VRB6      30.37F
RIVERTON       FAIR      66  33  29 VRB3      30.38F
CASPER         FAIR      69  36  29 CALM      30.36F
DOUGLAS        FAIR      69  38  32 S7        30.36F

$$
WYZ021-027>030-104>119-251800-
SOUTHERN WYOMING

CITY           SKY/WX    TMP DP  RH WIND       PRES   REMARKS
EVANSTON       FAIR      68  40  35 NE8       30.42S
KEMMERER         N/A     64  32  29 CALM      30.46R
FORT BRIDGER   FAIR      67  34  29 E6        30.46S
ROCK SPRINGS   FAIR      68  33  27 MISG      30.42S
DIXON          FAIR      71  37  27 SW6       30.40S
RAWLINS        FAIR      66  36  32 NE5       30.42S
SARATOGA       FAIR      64  36  34 NW8       30.42S
LARAMIE        FAIR      63  41  44 N5        30.40F
CHEYENNE       CLOUDY    60  45  57 E9        30.41S
TORRINGTON     FAIR      70  39  32 S10       30.33F
PINE BLUFFS    CLOUDY    57  41  54 E8        30.40F

$$



USA.gov is the U.S. government's official web portal to all federal, state and local government web resources and services.